Wind_Speed
16 16 17 17 18 19 19 19 20 20 20 20 19 19 19 19 18 18 18 18 18 18 18 18 19 19 19 18 18 18 17 17 17 18 18 18 19 19 19 20 20 20 20
17 17 18 18 18 18 18 19 19 20 20 21 21 21 20 20 20 20 20 19 19 19 19 20 20 20 20 20 19 19 19 19 19 19 20 20 20 20 20 20 21 21 20
17 18 19 19 19 19 19 19 19 20 21 21 22 22 22 22 22 22 22 22 21 21 21 21 21 21 21 21 20 20 20 20 21 21 21 21 21 21 21 22 22 22 22
18 18 19 19 20 20 21 21 21 22 22 22 23 23 24 24 24 24 24 24 23 23 22 22 22 22 22 22 22 22 22 22 22 23 23 23 23 23 23 23 23 23 23
19 19 19 20 20 21 22 22 23 23 23 23 24 24 25 25 25 25 25 25 25 24 24 24 24 23 24 24 24 23 23 22 22 23 23 23 23 23 23 23 23 23 23
21 21 20 21 21 22 22 23 23 24 24 24 24 25 25 26 26 26 27 27 26 26 26 25 25 25 24 24 24 24 24 23 23 23 23 23 23 24 24 24 24 24 24
23 23 22 22 22 22 22 23 23 23 24 25 25 25 26 26 27 27 27 27 27 27 27 26 26 25 25 25 25 24 23 23 23 24 23 23 23 23 24 24 24 24 25
26 25 24 24 24 24 24 24 24 24 24 24 25 25 25 25 26 26 27 27 27 27 27 27 27 26 26 25 24 23 23 23 24 24 23 23 24 24 25 26 26 26 26
28 26 26 26 26 26 25 25 24 24 24 24 24 25 24 24 24 25 26 26 26 26 26 27 27 26 26 25 24 23 23 23 23 24 24 25 25 26 27 28 28 28 28
26 27 27 27 27 26 26 26 25 25 25 25 25 24 24 24 24 24 24 25 25 25 26 26 26 26 26 25 24 24 23 23 24 25 26 26 27 28 29 29 29 29 29
25 26 27 27 27 27 27 27 27 26 26 26 26 25 25 24 23 23 23 24 24 25 25 25 26 26 26 25 25 25 25 25 26 27 28 28 29 30 30 30 30 29 28
25 26 26 27 27 27 27 27 27 27 27 27 26 26 25 25 24 23 23 23 24 25 25 26 26 27 27 27 27 27 27 27 28 29 30 30 30 31 31 31 30 29 28
25 25 25 25 26 26 27 27 27 27 28 27 27 27 26 26 26 24 24 24 24 24 25 26 26 27 28 28 29 29 30 30 31 31 32 32 32 32 31 31 30 29 29
25 25 25 25 25 26 26 27 27 27 28 28 28 27 27 27 27 26 25 25 24 25 25 26 27 28 28 29 30 31 32 33 33 34 34 34 34 33 32 32 31 31 30
25 25 25 25 26 26 26 27 27 28 28 28 28 28 28 28 28 27 27 26 26 26 26 27 27 28 28 29 31 32 33 34 34 35 35 35 35 34 33 33 32 32 32
26 26 25 25 26 27 27 28 28 29 29 29 29 29 29 29 29 28 28 28 28 28 28 28 28 29 29 30 31 32 33 34 35 35 35 35 35 35 34 34 34 34 34
27 27 26 26 27 27 28 29 29 30 30 30 30 30 30 30 30 29 29 30 30 29 29 29 29 30 31 31 32 33 33 35 35 36 36 37 37 37 37 36 36 36 36
29 29 28 27 27 28 29 30 31 31 31 31 32 32 31 31 31 31 31 31 31 31 31 31 31 31 32 32 33 34 35 36 37 37 37 38 38 39 39 39 39 38 38
31 31 30 30 29 29 30 31 32 32 32 33 33 33 33 33 32 32 33 32 32 32 32 32 32 32 33 33 34 35 36 37 38 38 39 39 40 40 41 41 41 41 42
33 33 33 33 32 32 33 34 34 34 34 34 34 35 35 34 34 34 34 34 33 33 33 33 33 34 34 35 35 36 36 37 38 39 39 40 41 42 42 43 43 44 44
36 36 36 35 35 35 35 36 36 36 37 37 37 37 37 36 36 36 35 35 34 34 34 35 35 35 36 36 36 37 37 38 39 40 40 42 43 43 44 44 45 45 46
38 39 39 39 39 39 39 39 40 40 40 41 40 39 39 38 38 38 37 36 35 35 35 35 36 36 36 36 36 37 38 38 39 41 42 43 43 44 44 45 45 46 47
41 42 43 43 43 43 43 43 43 44 43 42 42 41 41 41 41 41 39 37 37 36 36 36 36 36 36 36 37 38 39 39 40 40 42 43 43 44 45 46 46 47 48
45 46 46 47 47 47 48 47 47 46 45 45 44 44 45 44 44 43 41 39 38 37 37 37 37 37 37 37 38 39 40 40 40 40 41 42 43 45 46 47 48 49 49
48 49 50 51 52 52 52 51 51 50 49 48 48 48 47 47 46 44 43 41 40 39 38 38 37 38 38 38 39 40 40 41 41 42 42 44 45 46 47 49 50 51 52
52 53 54 55 55 56 56 56 55 54 52 51 50 50 49 49 48 46 45 44 43 41 40 39 38 38 39 40 40 41 42 42 43 43 44 44 46 47 49 51 53 54 55
Wind_Direction
254 256 258 260 261 263 264 265 265 265 265 266 266 268 270 273 275 277 279 278 276 273 270 267 265 264 265 267 271 274 276 278 280 281 282 284 286 286 286 286 286 286 285
256 256 257 260 262 264 266 266 266 266 266 265 264 264 266 267 270 273 275 275 273 271 269 267 266 266 267 269 271 274 276 278 279 280 281 283 284 284 285 285 286 286 285
255 256 257 260 263 265 267 268 269 270 269 268 266 265 265 265 266 268 270 271 270 269 267 266 265 266 268 269 270 272 274 275 277 278 280 282 283 284 285 285 285 285 285
257 257 257 259 262 264 266 269 271 273 273 272 270 268 267 266 266 266 267 267 267 265 264 263 263 264 266 267 268 270 271 274 276 278 279 281 282 283 283 284 284 284 284
255 256 257 259 261 264 266 269 272 275 276 276 275 273 271 269 268 267 268 267 267 265 263 261 261 262 264 265 267 269 271 273 276 277 279 281 282 283 284 284 283 284 284
252 254 256 258 261 264 267 270 273 275 277 279 279 278 276 274 272 270 269 269 268 267 264 262 261 262 263 265 268 270 272 275 276 277 279 280 281 282 283 283 284 284 284
252 254 256 258 261 265 268 271 274 276 278 279 280 281 281 279 276 274 272 271 270 269 268 266 264 264 266 267 270 272 274 276 277 278 280 280 281 281 282 283 284 285 285
253 255 257 259 262 265 268 271 274 277 279 280 282 282 283 281 279 276 274 273 272 272 271 270 268 268 268 268 270 272 274 275 277 279 279 280 281 282 283 284 284 285 284
253 255 257 259 261 264 267 270 274 277 278 280 282 283 283 282 280 278 276 274 273 272 272 271 270 269 268 268 269 270 272 274 276 278 280 281 282 283 284 284 284 284 284
253 255 256 259 261 264 266 269 272 274 277 279 281 283 283 282 282 280 278 276 274 273 272 271 270 268 267 267 268 269 270 272 274 277 280 282 284 284 285 285 285 285 285
249 252 254 257 260 263 266 268 270 272 275 277 279 280 281 282 281 281 280 278 276 274 273 272 271 269 268 267 267 267 269 271 274 276 279 281 283 284 285 285 286 285 284
247 250 253 256 259 263 265 267 269 271 274 276 278 279 280 281 281 281 280 280 278 277 275 274 273 270 269 267 266 267 267 270 272 275 278 280 283 284 285 285 284 283 283
247 251 255 258 260 262 265 267 269 271 273 275 277 278 279 279 280 281 281 281 280 279 278 277 276 274 272 270 269 268 268 270 272 275 277 280 283 284 285 285 283 282 283
247 250 253 257 260 262 264 266 269 271 272 274 276 278 278 278 278 279 280 281 281 281 281 281 280 279 277 274 273 272 271 272 273 275 277 280 282 284 285 284 282 281 281
245 248 252 255 258 261 263 266 268 271 272 274 275 276 277 277 277 277 278 280 281 280 280 281 282 282 281 279 277 275 274 275 276 277 278 279 281 283 283 282 281 280 279
248 248 249 251 254 258 261 264 267 269 271 273 274 275 275 276 276 276 277 278 279 279 280 280 281 282 282 282 281 279 278 278 278 279 280 281 281 282 282 282 281 280 279
249 250 250 250 252 255 259 262 265 268 270 271 272 274 275 275 275 275 275 276 277 279 279 279 280 281 282 282 282 282 281 281 280 280 280 280 281 282 282 282 281 281 279
247 249 251 251 252 255 258 261 263 265 267 269 270 272 273 274 275 274 274 275 276 277 278 279 279 281 282 283 282 282 282 282 281 280 280 281 281 281 281 282 282 281 281
247 249 251 252 253 254 257 259 262 264 266 267 269 270 270 271 272 273 273 274 275 276 277 278 280 281 283 284 284 284 284 283 281 280 280 281 281 282 282 282 283 283 283
246 249 251 253 254 255 257 260 262 265 265 265 266 266 267 268 269 271 272 273 275 276 277 278 280 281 283 285 285 285 285 285 283 281 282 282 282 282 282 283 283 283 284
248 250 252 254 255 257 258 261 263 263 263 262 263 264 266 267 269 270 271 272 274 276 278 279 281 282 284 285 286 286 286 286 285 284 283 283 283 283 283 284 284 284 285
251 252 254 255 257 258 259 260 261 261 262 263 263 265 266 267 268 268 270 271 272 274 276 279 281 282 284 285 286 286 286 288 288 286 285 285 286 286 286 286 286 286 286
254 255 256 257 258 259 260 260 260 262 263 264 264 264 264 264 264 266 268 270 271 273 275 278 280 282 284 285 285 287 288 288 288 288 287 286 287 287 287 287 287 287 287
257 258 258 259 259 259 260 260 261 262 263 263 262 261 261 261 262 264 266 268 270 272 274 277 280 282 284 285 285 287 287 287 288 288 288 288 289 290 290 290 289 289 288
261 261 261 261 260 260 260 260 260 260 261 261 261 260 260 261 261 262 264 266 268 270 273 277 280 282 284 285 286 287 287 288 288 289 290 290 291 292 292 291 291 290 289
263 263 262 261 261 260 260 259 259 259 259 259 259 258 258 258 259 260 261 263 266 269 272 275 279 281 283 285 286 287 289 289 290 290 290 291 293 293 293 293 292 292 291
Height
5868 5869 5870 5870 5871 5872 5873 5873 5873 5874 5874 5874 5875 5875 5875 5875 5875 5875 5875 5875 5875 5874 5874 5874 5873 5873 5873 5872 5872 5872 5871 5871 5870 5870 5869 5868 5868 5867 5866 5865 5864 5863 5863
5866 5867 5867 5868 5868 5869 5869 5870 5870 5870 5871 5871 5871 5872 5872 5872 5872 5873 5873 5873 5872 5872 5871 5871 5871 5870 5870 5870 5870 5870 5869 5868 5868 5867 5866 5866 5865 5864 5863 5862 5861 5860 5860
5863 5864 5865 5865 5866 5866 5866 5866 5867 5867 5867 5868 5868 5868 5868 5869 5869 5869 5869 5869 5869 5869 5869 5868 5868 5868 5867 5867 5867 5867 5866 5865 5865 5864 5863 5863 5862 5861 5860 5859 5858 5857 5856
5860 5861 5862 5862 5863 5863 5863 5863 5864 5864 5864 5865 5865 5865 5865 5865 5865 5865 5866 5866 5866 5865 5865 5865 5865 5864 5864 5864 5863 5863 5863 5862 5861 5860 5860 5859 5858 5857 5856 5855 5854 5853 5852
5857 5858 5859 5859 5859 5859 5860 5860 5861 5861 5861 5861 5861 5861 5861 5861 5861 5861 5862 5862 5862 5862 5861 5861 5861 5861 5860 5860 5860 5859 5859 5859 5858 5857 5856 5855 5854 5853 5852 5851 5850 5849 5849
5853 5854 5855 5856 5856 5856 5857 5857 5858 5858 5858 5858 5858 5858 5858 5857 5857 5857 5858 5858 5858 5857 5857 5857 5857 5857 5856 5856 5856 5855 5855 5855 5854 5853 5852 5851 5850 5849 5848 5847 5846 5845 5844
5849 5850 5851 5852 5853 5853 5854 5854 5854 5855 5855 5855 5854 5854 5854 5854 5854 5854 5853 5853 5853 5853 5853 5853 5853 5852 5852 5852 5852 5851 5851 5850 5849 5848 5848 5847 5845 5844 5843 5842 5841 5840 5840
5845 5846 5847 5848 5849 5850 5850 5851 5851 5851 5851 5851 5851 5850 5850 5850 5850 5849 5849 5849 5849 5849 5849 5848 5848 5848 5848 5847 5847 5847 5847 5846 5845 5844 5843 5842 5841 5840 5839 5838 5837 5836 5835
5840 5842 5843 5844 5845 5845 5846 5847 5847 5847 5847 5847 5847 5847 5846 5846 5845 5845 5845 5845 5844 5844 5844 5844 5844 5843 5843 5843 5843 5843 5842 5841 5840 5840 5839 5838 5837 5835 5834 5833 5832 5831 5830
5835 5836 5838 5839 5840 5841 5841 5842 5843 5843 5843 5843 5843 5843 5842 5842 5841 5841 5841 5840 5840 5840 5839 5839 5839 5839 5839 5839 5839 5838 5838 5837 5836 5835 5834 5833 5832 5830 5829 5828 5826 5825 5824
5830 5831 5832 5834 5835 5836 5836 5837 5838 5838 5838 5839 5839 5838 5838 5838 5837 5837 5836 5836 5836 5835 5835 5835 5834 5834 5834 5834 5834 5833 5833 5832 5831 5830 5829 5828 5827 5825 5824 5822 5821 5820 5819
5825 5826 5827 5829 5830 5831 5831 5832 5833 5833 5834 5834 5834 5834 5834 5833 5833 5833 5832 5832 5831 5831 5831 5830 5830 5829 5829 5829 5828 5828 5827 5827 5826 5825 5824 5823 5821 5820 5818 5817 5815 5814 5813
5820 5821 5822 5823 5825 5826 5826 5827 5827 5828 5829 5829 5829 5829 5829 5829 5829 5829 5828 5828 5827 5827 5826 5825 5825 5824 5824 5823 5823 5822 5822 5821 5820 5819 5818 5817 5815 5814 5813 5811 5810 5809 5808
5815 5816 5817 5818 5819 5820 5821 5821 5822 5823 5823 5823 5824 5824 5824 5824 5824 5824 5823 5823 5822 5822 5821 5821 5820 5819 5818 5817 5817 5816 5816 5815 5814 5813 5812 5810 5809 5808 5807 5805 5804 5803 5802
5809 5810 5811 5812 5813 5814 5815 5816 5816 5817 5817 5818 5818 5818 5819 5818 5818 5818 5818 5818 5817 5817 5816 5815 5814 5813 5813 5812 5811 5810 5809 5808 5807 5806 5804 5803 5802 5801 5800 5799 5797 5796 5795
5801 5804 5805 5806 5807 5808 5809 5810 5810 5811 5811 5812 5812 5812 5813 5813 5813 5813 5812 5812 5811 5811 5810 5809 5808 5807 5806 5805 5804 5803 5802 5801 5799 5798 5797 5796 5795 5794 5793 5791 5790 5789 5788
5794 5796 5797 5799 5801 5802 5803 5803 5804 5804 5805 5805 5805 5806 5806 5806 5807 5807 5806 5806 5805 5805 5804 5803 5802 5801 5800 5799 5798 5796 5795 5794 5792 5791 5789 5788 5787 5786 5785 5783 5782 5781 5780
5788 5789 5790 5792 5794 5795 5796 5797 5797 5798 5798 5799 5799 5799 5800 5800 5800 5800 5800 5799 5799 5798 5798 5797 5795 5794 5793 5792 5790 5789 5788 5786 5784 5783 5781 5780 5779 5777 5776 5775 5774 5772 5771
5781 5782 5783 5784 5786 5788 5789 5789 5790 5791 5791 5792 5792 5792 5793 5793 5793 5793 5793 5792 5792 5791 5791 5790 5789 5787 5786 5784 5783 5781 5780 5778 5776 5774 5773 5771 5770 5768 5767 5765 5764 5763 5761
5773 5774 5775 5776 5778 5779 5780 5781 5782 5783 5784 5784 5785 5785 5785 5785 5785 5785 5785 5785 5785 5784 5783 5782 5781 5780 5778 5777 5775 5773 5771 5770 5768 5766 5764 5762 5761 5759 5757 5756 5754 5752 5751
5765 5766 5767 5769 5770 5771 5772 5773 5773 5774 5775 5775 5776 5776 5777 5777 5777 5777 5777 5777 5777 5776 5776 5775 5774 5772 5771 5769 5767 5765 5763 5761 5759 5757 5755 5753 5751 5749 5748 5746 5743 5741 5740
5756 5757 5758 5760 5760 5761 5763 5764 5764 5765 5765 5766 5767 5768 5769 5769 5769 5769 5769 5769 5769 5768 5768 5767 5766 5764 5763 5761 5759 5757 5755 5754 5750 5748 5746 5743 5741 5739 5737 5735 5732 5730 5728
5746 5747 5748 5749 5750 5752 5753 5754 5754 5754 5755 5757 5758 5760 5760 5760 5759 5760 5760 5760 5760 5760 5760 5759 5758 5756 5755 5753 5751 5749 5747 5745 5742 5740 5737 5734 5731 5729 5726 5723 5721 5719 5716
5735 5736 5737 5738 5739 5740 5741 5742 5743 5744 5746 5748 5748 5749 5749 5749 5750 5750 5751 5752 5752 5751 5751 5750 5749 5748 5746 5745 5743 5740 5738 5736 5734 5731 5729 5725 5722 5719 5715 5712 5709 5706 5704
5723 5724 5724 5725 5726 5727 5728 5730 5732 5733 5735 5736 5737 5738 5739 5739 5740 5741 5742 5742 5742 5742 5742 5741 5740 5739 5738 5736 5734 5731 5729 5726 5724 5721 5719 5716 5712 5708 5704 5700 5696 5693 5690
5710 5710 5710 5710 5712 5712 5714 5716 5718 5720 5722 5723 5725 5726 5727 5728 5729 5731 5732 5733 5733 5733 5733 5732 5731 5730 5729 5727 5725 5722 5720 5717 5714 5711 5709 5705 5702 5697 5692 5687 5683 5679 5676